Wind_Speed
68 63 57 53 52 50 49 48 52 55 57 62 61 63 67 71 72 80 81 81 79 75 73 72 68 67 67 65 63 62 59 60 55 54 49 45 45 45 46 47 38 35 34 23
57 54 50 46 45 42 40 42 42 42 42 44 45 48 52 63 68 73 80 84 85 82 79 76 73 72 71 70 68 67 65 64 59 57 55 56 57 52 50 47 45 46 42 25
55 51 49 46 42 41 40 42 36 30 29 30 26 28 40 53 62 67 75 82 85 87 86 83 80 76 76 74 74 72 69 69 66 64 58 60 59 57 56 53 54 46 46 31
58 50 46 43 41 39 38 36 32 25 24 25 23 18 25 39 49 54 58 70 80 83 85 86 85 81 79 78 78 77 75 73 71 69 65 63 61 61 60 59 55 53 42 39
56 55 49 42 40 36 35 34 30 23 21 21 21 23 22 18 29 38 43 41 59 76 78 83 83 85 85 83 81 81 80 78 76 73 71 67 65 62 62 61 59 58 48 47
52 52 50 43 40 36 34 31 27 24 18 18 20 21 20 19 17 22 30 49 43 56 72 79 81 85 86 87 86 86 86 84 81 79 76 74 72 64 64 65 63 58 53 46
50 49 50 47 42 41 35 32 25 21 18 16 19 18 18 18 17 11 25 26 36 45 54 62 74 82 86 89 88 89 90 90 88 85 80 80 76 68 67 68 64 61 57 49
52 51 50 50 46 40 40 34 27 22 17 16 18 17 15 14 14 12 13 31 29 22 25 47 58 64 80 83 90 91 90 92 92 92 88 84 81 79 72 69 67 64 64 57
50 49 49 48 47 45 39 38 32 25 20 16 19 17 16 11 11 10 10 14 22 27 20 22 31 45 60 75 84 87 93 90 95 95 94 91 87 81 77 74 71 67 66 61
59 46 44 45 43 43 44 42 35 29 22 17 21 16 10 10 7 7 10 10 13 18 28 33 33 31 34 51 64 78 84 96 95 95 98 97 92 87 83 80 72 67 65 62
58 54 48 41 39 42 43 44 39 33 25 22 17 9 5 5 6 7 8 6 8 11 13 15 18 21 26 35 40 56 74 85 98 99 99 104 94 90 87 84 77 71 69 62
52 59 45 42 38 35 36 38 34 33 30 23 17 8 2 3 4 3 3 4 5 5 8 9 12 11 13 11 15 33 54 76 86 96 109 97 93 88 84 84 82 77 71 65
52 56 53 49 34 33 32 34 31 27 26 25 18 17 10 6 3 3 3 5 7 7 3 8 9 9 8 9 7 19 33 46 66 80 97 101 99 85 80 79 72 74 66 68
49 55 55 49 32 31 31 28 32 27 24 22 20 16 14 13 11 6 6 5 4 2 5 3 2 4 4 9 12 16 24 39 46 58 75 89 94 91 71 65 57 45 37 44
45 48 51 39 30 31 31 29 27 28 25 23 21 20 17 10 13 15 17 11 9 5 1 5 6 10 14 13 19 13 30 36 43 41 46 63 70 67 79 46 41 42 40 40
39 44 46 39 32 38 39 30 24 25 24 23 20 14 15 18 16 17 16 11 11 8 7 11 14 14 15 12 7 18 23 35 40 45 46 41 53 53 47 73 49 46 45 47
35 39 41 40 29 33 39 31 23 20 22 22 19 20 12 9 9 10 10 9 6 10 14 19 15 10 14 12 25 19 24 23 37 44 49 51 47 51 50 51 55 51 52 49
32 35 40 36 26 26 26 30 30 32 28 27 25 24 20 20 18 13 12 14 19 20 21 24 26 29 31 32 15 10 10 29 41 48 47 35 32 60 56 52 56 52 56 63
28 33 35 31 21 21 23 30 33 31 27 24 24 23 20 19 17 14 18 18 16 19 21 24 25 27 29 28 11 17 25 28 36 40 39 29 34 58 60 51 54 59 54 66
25 30 33 27 19 22 18 31 31 26 23 20 20 19 18 15 16 20 19 17 21 21 22 22 21 23 23 18 21 23 23 22 25 37 39 38 38 43 55 52 42 59 34 35
23 28 27 18 17 24 24 26 24 24 24 20 21 18 15 13 14 19 28 32 42 37 32 30 26 25 27 26 23 16 18 23 13 17 34 42 36 45 39 38 48 23 35 49
23 22 16 17 27 31 29 30 29 28 24 20 19 21 24 23 24 30 34 34 32 39 40 40 41 32 27 25 32 22 13 16 28 24 12 15 12 16 34 33 36 34 18 26
23 15 17 28 33 31 31 29 26 29 27 27 26 29 31 33 32 36 38 41 40 39 40 35 35 33 32 24 22 22 16 10 15 8 6 9 9 6 18 21 19 18 24 28
12 11 27 34 37 31 24 25 25 25 27 29 27 26 24 29 35 36 35 39 40 37 39 39 25 23 21 23 28 27 22 25 32 29 14 8 5 9 12 20 25 26 26 24
8 19 29 28 32 28 25 13 15 22 22 21 20 23 27 26 30 28 30 34 35 30 29 25 23 30 27 22 22 27 30 29 28 27 23 13 11 11 12 11 18 23 25 23
19 23 24 25 22 23 22 22 24 27 31 20 14 14 16 17 20 21 28 28 28 23 22 23 17 24 27 30 29 28 23 18 16 19 17 18 18 16 11 11 13 15 17 19
17 18 18 19 15 14 15 16 17 23 22 18 19 17 18 15 15 16 17 19 18 18 18 18 18 18 19 19 19 19 20 21 19 15 11 10 11 12 10 10 11 13 13 15
Wind_Direction
329 330 329 322 314 308 304 300 294 286 278 270 261 252 245 240 237 235 235 236 235 234 235 235 232 232 235 235 233 234 234 236 234 234 231 229 228 228 238 244 243 252 255 249
334 333 332 333 332 330 326 316 307 301 296 287 274 258 245 237 232 231 232 232 232 232 231 230 228 229 231 233 235 234 233 234 233 234 229 228 231 232 232 235 236 237 243 233
344 336 332 329 327 328 324 334 322 312 313 312 293 261 245 235 229 225 228 229 230 229 229 228 226 224 227 229 233 234 234 234 232 234 231 232 232 234 236 233 238 240 241 239
349 348 341 335 330 327 326 333 337 319 315 318 325 309 261 246 237 227 224 228 229 227 227 228 225 222 222 224 229 232 234 234 234 233 233 234 234 235 237 240 241 243 246 244
345 348 351 342 334 333 330 329 335 327 314 310 302 318 314 291 257 238 216 226 230 229 228 225 224 223 218 219 222 227 233 233 235 234 234 234 233 234 237 240 240 246 245 244
350 349 351 353 349 338 331 334 331 332 322 305 302 303 309 310 305 254 236 225 228 231 229 226 225 223 220 218 218 221 227 232 233 235 236 235 233 230 235 239 243 245 243 247
356 351 349 353 355 351 342 339 336 329 336 309 297 296 293 292 301 288 232 217 230 233 236 231 228 225 223 220 218 219 222 226 231 233 234 235 235 232 232 236 239 244 246 239
358 357 355 353 357 353 352 348 336 328 326 313 296 297 288 282 286 280 245 231 221 225 240 243 239 234 229 223 220 220 222 224 228 231 231 233 236 234 233 233 235 239 243 242
355 355 356 354 356 356 357 353 349 337 322 315 307 302 282 275 275 279 267 250 241 225 237 241 248 245 240 232 226 224 223 224 225 227 232 231 232 236 236 235 232 236 238 241
360 357 352 352 357 356 358 2 356 355 341 307 311 311 296 281 279 261 276 251 231 229 238 247 250 251 250 245 240 231 228 225 227 227 230 230 230 231 234 235 232 232 238 239
359 358 356 349 353 0 356 360 0 358 0 345 352 345 312 267 278 268 282 286 244 232 227 232 239 246 244 250 247 243 237 231 227 227 230 232 229 231 232 235 235 233 234 238
353 358 354 358 349 353 354 351 358 3 6 8 9 10 356 282 312 290 281 250 249 239 253 244 245 227 236 252 251 241 239 238 235 231 227 234 234 231 232 234 237 239 236 235
353 356 3 6 2 348 346 356 353 359 6 19 27 35 40 53 92 134 179 203 219 237 210 182 196 215 239 263 245 236 238 231 236 237 227 230 233 231 230 235 239 240 243 239
351 358 358 9 4 345 347 343 352 4 3 6 20 29 48 64 69 77 64 66 28 133 156 113 158 238 294 280 274 253 240 225 230 232 234 232 232 232 227 231 233 241 241 242
352 356 0 10 2 358 357 360 351 355 359 12 31 29 46 52 55 60 78 100 106 107 31 326 334 320 314 304 280 277 243 226 222 221 224 232 230 235 229 211 211 220 225 226
351 353 1 2 13 20 13 9 2 3 9 31 47 52 45 58 62 78 82 75 55 41 27 2 6 359 329 311 259 237 254 235 211 181 187 200 216 221 213 221 207 206 206 211
351 355 358 0 359 12 30 33 28 35 48 52 59 60 55 48 46 34 41 56 38 34 8 16 23 346 332 326 344 316 243 222 186 175 176 175 186 197 198 205 209 213 214 216
349 358 358 359 359 18 29 42 48 42 43 53 58 62 67 69 75 74 63 45 31 19 28 28 24 13 7 7 5 324 148 160 164 167 164 176 177 184 193 202 209 215 220 221
350 357 358 354 15 17 29 42 45 44 48 50 54 68 71 74 64 56 48 46 50 37 34 27 23 21 12 12 85 104 134 150 155 164 169 177 184 179 181 188 208 219 218 217
355 356 359 351 13 34 58 61 57 49 50 64 64 69 64 55 46 50 56 51 49 47 46 48 35 30 8 44 109 130 142 141 152 172 167 168 169 188 184 193 211 216 227 214
1 2 351 360 46 53 49 41 41 52 60 76 77 74 66 52 51 65 68 69 68 63 57 53 40 48 37 72 127 113 130 163 169 143 158 175 180 186 182 199 211 192 193 210
16 360 354 77 55 48 44 54 59 58 58 63 69 72 77 81 81 85 79 70 67 58 58 57 50 59 62 69 92 101 129 120 178 162 139 131 140 186 184 203 195 203 213 217
16 352 63 67 59 53 50 56 60 72 70 72 77 84 83 83 83 82 71 67 69 58 53 56 45 64 81 84 102 112 102 106 187 150 167 175 155 141 186 194 214 220 228 234
13 73 67 59 59 51 56 69 74 73 75 76 80 74 85 83 90 86 82 71 64 60 53 46 53 51 65 84 100 117 131 129 114 112 135 153 181 244 217 222 230 235 234 247
48 68 72 59 61 62 62 65 63 64 64 76 74 73 81 92 88 80 70 66 65 58 58 62 43 47 60 73 106 111 123 129 130 132 128 149 149 162 193 206 206 212 221 232
36 52 54 55 49 54 58 65 68 62 42 37 46 58 76 75 67 61 63 61 58 59 54 51 51 26 34 43 50 59 77 96 112 135 140 142 138 144 149 165 191 209 215 219
27 40 47 47 40 33 33 40 46 50 38 19 1 1 21 30 57 60 57 55 51 49 42 40 36 33 29 32 44 49 43 40 48 77 115 144 178 191 185 211 225 232 239 240
Height
5659 5648 5638 5628 5618 5611 5604 5598 5593 5591 5590 5595 5599 5606 5615 5622 5632 5639 5647 5657 5666 5677 5687 5695 5703 5713 5719 5728 5735 5743 5751 5755 5765 5774 5779 5784 5789 5793 5793 5797 5809 5811 5814 5820
5651 5641 5630 5621 5610 5601 5594 5586 5580 5573 5572 5572 5573 5578 5585 5592 5603 5611 5620 5628 5640 5653 5665 5674 5682 5693 5703 5709 5717 5725 5734 5739 5751 5759 5767 5770 5771 5780 5786 5793 5797 5797 5804 5814
5645 5635 5624 5614 5603 5595 5587 5579 5571 5567 5562 5558 5557 5560 5562 5568 5575 5586 5591 5600 5614 5628 5640 5651 5659 5673 5683 5692 5699 5706 5715 5723 5734 5741 5753 5758 5762 5770 5774 5781 5781 5793 5792 5809
5641 5629 5618 5607 5596 5588 5580 5573 5567 5562 5558 5554 5551 5549 5549 5551 5555 5565 5573 5580 5588 5601 5614 5627 5639 5652 5662 5673 5681 5689 5697 5705 5717 5725 5736 5743 5750 5759 5765 5768 5776 5779 5794 5798
5638 5625 5613 5603 5592 5583 5574 5567 5562 5558 5554 5551 5549 5547 5545 5544 5546 5550 5559 5563 5567 5578 5590 5602 5616 5629 5642 5651 5663 5671 5679 5688 5697 5710 5717 5727 5737 5747 5754 5759 5765 5769 5784 5785
5635 5623 5610 5599 5589 5579 5570 5564 5558 5553 5550 5547 5546 5545 5543 5542 5542 5543 5547 5552 5556 5560 5569 5579 5591 5603 5620 5633 5643 5652 5661 5670 5680 5692 5702 5711 5719 5738 5743 5749 5755 5762 5772 5785
5633 5619 5608 5597 5587 5577 5567 5561 5555 5550 5546 5543 5540 5539 5539 5538 5539 5540 5542 5545 5547 5551 5555 5562 5571 5582 5596 5611 5625 5635 5643 5651 5660 5673 5688 5694 5707 5724 5729 5734 5744 5752 5760 5774
5632 5620 5608 5596 5586 5576 5567 5558 5552 5547 5543 5538 5535 5534 5534 5534 5534 5535 5536 5537 5543 5545 5549 5554 5560 5569 5578 5592 5605 5616 5626 5632 5644 5652 5667 5684 5690 5703 5715 5725 5736 5742 5747 5759
5632 5620 5608 5597 5588 5577 5568 5559 5551 5544 5539 5536 5531 5530 5529 5529 5530 5530 5531 5533 5536 5542 5545 5548 5553 5560 5566 5576 5587 5598 5608 5616 5625 5638 5646 5663 5678 5688 5701 5713 5720 5731 5736 5747
5633 5620 5609 5598 5588 5579 5569 5560 5551 5544 5538 5532 5527 5526 5526 5526 5527 5528 5527 5528 5531 5535 5539 5543 5548 5553 5556 5562 5571 5584 5588 5597 5607 5621 5625 5643 5659 5674 5684 5696 5717 5726 5730 5738
5636 5621 5609 5599 5589 5581 5572 5564 5554 5545 5539 5531 5527 5524 5523 5524 5525 5526 5527 5527 5529 5532 5535 5538 5541 5544 5547 5550 5558 5565 5572 5584 5593 5603 5606 5620 5649 5661 5674 5687 5697 5710 5721 5731
5636 5623 5610 5600 5591 5582 5574 5566 5558 5550 5541 5535 5529 5525 5523 5524 5524 5525 5526 5527 5527 5530 5532 5535 5537 5539 5540 5544 5550 5551 5557 5568 5580 5587 5599 5611 5636 5653 5666 5676 5686 5697 5711 5721
5636 5624 5613 5603 5593 5584 5575 5568 5561 5554 5547 5540 5534 5530 5527 5525 5524 5525 5526 5526 5525 5527 5530 5533 5536 5538 5540 5542 5544 5543 5545 5552 5554 5571 5591 5603 5615 5635 5657 5668 5680 5689 5697 5710
5637 5627 5615 5603 5594 5585 5577 5570 5564 5558 5551 5546 5541 5536 5533 5530 5528 5527 5528 5530 5530 5532 5535 5537 5538 5538 5539 5539 5538 5536 5539 5538 5550 5554 5579 5595 5606 5623 5648 5661 5674 5683 5691 5699
5639 5630 5618 5606 5596 5586 5578 5572 5566 5560 5556 5551 5546 5541 5538 5535 5534 5534 5534 5534 5535 5537 5538 5539 5539 5538 5536 5535 5532 5531 5530 5529 5530 5550 5575 5585 5602 5615 5637 5657 5668 5676 5684 5690
5640 5631 5623 5612 5600 5590 5581 5575 5570 5563 5558 5555 5551 5548 5544 5543 5541 5541 5541 5542 5541 5540 5540 5540 5540 5539 5536 5531 5528 5526 5521 5521 5526 5536 5551 5570 5589 5609 5624 5644 5660 5668 5673 5679
5642 5634 5625 5615 5605 5595 5587 5579 5573 5567 5562 5559 5555 5552 5550 5548 5548 5547 5546 5544 5542 5542 5541 5541 5539 5537 5533 5530 5523 5519 5515 5516 5525 5536 5546 5562 5578 5599 5618 5632 5651 5659 5666 5672
5642 5636 5627 5616 5608 5601 5593 5583 5576 5573 5569 5565 5562 5559 5556 5555 5555 5552 5550 5549 5548 5547 5545 5544 5540 5537 5533 5526 5520 5513 5514 5519 5526 5537 5552 5568 5581 5593 5607 5625 5642 5651 5656 5660
5644 5637 5628 5620 5614 5607 5598 5590 5583 5579 5578 5573 5569 5567 5564 5563 5561 5560 5558 5556 5554 5552 5550 5547 5545 5542 5537 5531 5526 5525 5526 5534 5543 5548 5558 5574 5585 5590 5601 5618 5630 5639 5646 5651
5644 5637 5630 5626 5617 5608 5604 5596 5590 5586 5583 5580 5577 5575 5573 5571 5568 5567 5565 5561 5559 5557 5557 5554 5551 5548 5543 5539 5540 5540 5537 5546 5548 5561 5568 5580 5585 5591 5600 5612 5623 5630 5634 5634
5645 5638 5632 5627 5620 5612 5606 5600 5597 5594 5591 5588 5587 5584 5582 5580 5577 5575 5572 5570 5568 5566 5565 5560 5557 5553 5549 5548 5551 5550 5552 5558 5555 5561 5580 5587 5593 5595 5602 5610 5616 5618 5622 5628
5646 5641 5636 5630 5620 5614 5612 5607 5605 5602 5599 5596 5594 5592 5590 5588 5585 5583 5582 5578 5576 5574 5570 5567 5563 5563 5561 5558 5557 5558 5565 5567 5572 5573 5576 5582 5585 5595 5600 5610 5613 5620 5622 5625
5649 5646 5638 5628 5624 5622 5618 5615 5614 5611 5610 5607 5604 5602 5600 5598 5595 5593 5590 5587 5585 5583 5579 5576 5576 5576 5574 5571 5570 5572 5575 5577 5584 5582 5584 5589 5590 5597 5600 5606 5611 5615 5620 5625
5655 5648 5638 5633 5629 5629 5629 5627 5625 5623 5619 5617 5615 5613 5609 5608 5605 5601 5598 5598 5594 5592 5589 5589 5588 5585 5584 5583 5579 5579 5580 5582 5583 5584 5587 5590 5593 5598 5602 5606 5610 5613 5615 5618
5658 5652 5642 5643 5640 5640 5636 5635 5634 5631 5629 5625 5624 5622 5619 5617 5612 5610 5607 5604 5602 5601 5602 5601 5598 5595 5592 5590 5588 5585 5586 5587 5587 5587 5589 5593 5597 5598 5600 5604 5607 5611 5612 5612
5661 5653 5651 5649 5649 5648 5645 5642 5639 5637 5636 5634 5633 5631 5628 5625 5620 5618 5612 5611 5610 5611 5610 5608 5606 5602 5598 5594 5592 5591 5591 5591 5591 5592 5594 5594 5597 5598 5600 5601 5600 5602 5603 5603
5665 5662 5660 5657 5656 5653 5649 5646 5643 5639 5639 5641 5640 5637 5632 5630 5625 5623 5620 5616 5616 5615 5613 5610 5608 5607 5604 5602 5602 5602 5600 5597 5596 5596 5595 5597 5598 5598 5599 5601 5602 5601 5599 5599